TimeGMT,TemperatureF,Dew PointF,Humidity,Sea Level PressureIn,VisibilityMPH,Wind Direction,Wind SpeedMPH,Gust SpeedMPH,PrecipitationIn,Events,Conditions,WindDirDegrees,DateUTC
12:00 AM,47,46,93,29.35,2,East,13.4,,,,Mist,100,2013-03-07 00:00:00
12:00 AM,46.4,46.4,100,29.33,2.2,East,13.8,-,N/A,,Overcast,100,2013-03-07 00:00:00
12:30 AM,46.4,46.4,100,29.33,2.5,East,12.7,-,N/A,,Overcast,100,2013-03-07 00:30:00
1:00 AM,46.4,46.4,100,29.33,2.2,East,11.5,-,N/A,,Overcast,100,2013-03-07 01:00:00
1:30 AM,46.4,46.4,100,29.33,2.2,East,11.5,-,N/A,,Light Drizzle,90,2013-03-07 01:30:00
2:00 AM,46.4,46.4,100,29.33,2.2,East,12.7,-,N/A,,Light Drizzle,100,2013-03-07 02:00:00
2:30 AM,48.2,46.4,93,29.30,2.5,East,12.7,-,N/A,,Overcast,100,2013-03-07 02:30:00
3:00 AM,48.2,46.4,93,29.30,2.5,East,11.5,-,N/A,,Overcast,100,2013-03-07 03:00:00
3:30 AM,48.2,46.4,93,29.30,2.2,East,12.7,-,N/A,,Overcast,100,2013-03-07 03:30:00
4:00 AM,48.2,46.4,93,29.27,2.5,East,15.0,-,N/A,,Overcast,100,2013-03-07 04:00:00
4:30 AM,48.2,46.4,93,29.27,2.5,East,13.8,-,N/A,,Overcast,100,2013-03-07 04:30:00
5:00 AM,48.2,46.4,93,29.27,2.5,East,15.0,-,N/A,,Overcast,100,2013-03-07 05:00:00
5:30 AM,48.2,46.4,93,29.27,2.5,East,11.5,-,N/A,,Overcast,100,2013-03-07 05:30:00
6:00 AM,48.2,46.4,93,29.27,2.8,East,15.0,-,N/A,,Overcast,90,2013-03-07 06:00:00
6:30 AM,48.2,46.4,93,29.27,2.5,East,15.0,-,N/A,,Overcast,90,2013-03-07 06:30:00
7:00 AM,48.2,46.4,93,29.24,2.8,East,12.7,-,N/A,,Overcast,90,2013-03-07 07:00:00
7:30 AM,48.2,46.4,93,29.24,2.5,East,12.7,-,N/A,,Overcast,90,2013-03-07 07:30:00
8:00 AM,48.2,46.4,93,29.24,6.2,East,13.8,-,N/A,,Overcast,90,2013-03-07 08:00:00
8:30 AM,48.2,46.4,93,29.24,6.2,East,16.1,-,N/A,,Overcast,100,2013-03-07 08:30:00
9:00 AM,48.2,46.4,93,29.24,3.7,East,17.3,-,N/A,Rain,Light Rain,100,2013-03-07 09:00:00
9:30 AM,48.2,46.4,93,29.24,3.7,East,13.8,-,N/A,,Overcast,100,2013-03-07 09:30:00
10:00 AM,48.2,46.4,93,29.24,3.7,East,18.4,-,N/A,Rain,Light Rain,100,2013-03-07 10:00:00
10:30 AM,50.0,48.2,94,29.24,3.1,East,15.0,-,N/A,,Overcast,90,2013-03-07 10:30:00
11:00 AM,50.0,48.2,94,29.24,2.5,East,17.3,-,N/A,Rain,Light Rain,90,2013-03-07 11:00:00
11:30 AM,50.0,48.2,94,29.21,2.5,East,16.1,-,N/A,Rain,Light Rain,100,2013-03-07 11:30:00
12:00 PM,49,47,92,29.23,3,East,17.9,,,Rain,Light Rain,100,2013-03-07 12:00:00
12:00 PM,50.0,48.2,94,29.21,3.1,East,17.3,-,N/A,,Overcast,100,2013-03-07 12:00:00
12:30 PM,50.0,48.2,94,29.21,3.1,East,16.1,-,N/A,,Mostly Cloudy,100,2013-03-07 12:30:00
1:00 PM,50.0,48.2,94,29.21,3.1,East,17.3,-,N/A,Rain,Light Rain,100,2013-03-07 13:00:00
1:30 PM,50.0,48.2,94,29.18,3.7,East,18.4,-,N/A,,Overcast,100,2013-03-07 13:30:00
2:00 PM,50.0,48.2,94,29.18,6.2,East,18.4,-,N/A,,Overcast,100,2013-03-07 14:00:00
2:30 PM,50.0,48.2,94,29.18,6.2,East,17.3,-,N/A,Rain,Light Rain,100,2013-03-07 14:30:00
3:00 PM,50.0,48.2,94,29.18,6.2,East,16.1,-,N/A,Rain,Light Rain,100,2013-03-07 15:00:00
3:30 PM,50.0,48.2,94,29.15,6.2,East,15.0,-,N/A,Rain,Light Rain,90,2013-03-07 15:30:00
4:00 PM,50.0,48.2,94,29.15,5.6,East,13.8,-,N/A,Rain,Light Rain,100,2013-03-07 16:00:00
4:30 PM,50.0,48.2,94,29.15,6.2,East,15.0,-,N/A,,Mostly Cloudy,100,2013-03-07 16:30:00
5:00 PM,50.0,48.2,94,29.15,5.6,East,16.1,-,N/A,Rain,Light Rain,100,2013-03-07 17:00:00
5:30 PM,50.0,48.2,94,29.15,6.2,East,15.0,-,N/A,,Mostly Cloudy,100,2013-03-07 17:30:00
6:00 PM,49,47,92,29.17,6,East,15.7,,,Rain,Light Rain,100,2013-03-07 18:00:00
6:00 PM,48.2,48.2,100,29.15,5.6,East,15.0,-,N/A,,Mostly Cloudy,100,2013-03-07 18:00:00
6:30 PM,48.2,48.2,100,29.15,5.6,East,15.0,-,N/A,,Mostly Cloudy,100,2013-03-07 18:30:00
7:00 PM,50.0,48.2,94,29.15,5.6,East,15.0,-,N/A,,Overcast,100,2013-03-07 19:00:00
7:30 PM,50.0,48.2,94,29.15,5.6,East,13.8,-,N/A,,Overcast,90,2013-03-07 19:30:00
8:00 PM,50.0,48.2,94,29.15,6.2,East,15.0,-,N/A,,Overcast,90,2013-03-07 20:00:00
8:30 PM,50.0,48.2,94,29.15,6.2,East,15.0,-,N/A,,Mostly Cloudy,90,2013-03-07 20:30:00
9:00 PM,50.0,48.2,94,29.15,6.2,North,-9999.0,-,N/A,,Mostly Cloudy,0,2013-03-07 21:00:00
9:30 PM,50.0,48.2,94,29.15,6.2,East,16.1,-,N/A,,Mostly Cloudy,100,2013-03-07 21:30:00
10:00 PM,50.0,48.2,94,29.15,6.2,East,15.0,-,N/A,,Mostly Cloudy,100,2013-03-07 22:00:00
10:30 PM,50.0,48.2,94,29.15,6.2,East,13.8,-,N/A,,Mostly Cloudy,100,2013-03-07 22:30:00
11:00 PM,48.2,48.2,100,29.15,5.0,East,13.8,-,N/A,Rain,Light Rain,100,2013-03-07 23:00:00
11:30 PM,50.0,48.2,94,29.15,5.0,East,11.5,-,N/A,Rain,Light Rain,100,2013-03-07 23:30:00